This demonstration page uses our WeatherBlox Daily Observations layout. Learn more.

40.92945, -100.16068

Hourly Observations for March 3, 2015

Temp ( °F °C ) Dew Point ( °F °C ) Humidity (%) Winds ( mph kmh ) Pressure ( in mb ) Visibility ( mi km ) Precip ( " mm )
12:15 am 00:15 Cloudy 29 -1.5 21 -6 72 72 SSE 12 19 29.77 1008 10 16.0934 N/A
12:35 am 00:35 Cloudy 29 -1.6 21 -5.9 73 73 SSE 14 22 29.77 1008 10 16.0934 N/A
12:55 am 00:55 Cloudy 29 -1.7 22 -5.6 75 75 SSE 12 19 29.77 1008 10 16.0934 N/A
1:15 am 01:15 Cloudy 29 -1.7 22 -5.5 76 76 SSE 9 15 29.77 1008 10 16.0934 N/A
1:35 am 01:35 Cloudy 29 -1.7 22 -5.3 77 77 SSE 7 11 29.77 1008 10 16.0934 N/A
1:55 am 01:55 Cloudy 29 -1.7 23 -5.2 77 77 SSE 6 9 29.77 1008 10 16.0934 N/A
2:15 am 02:15 Cloudy 29 -1.7 23 -5.1 78 78 Calm 29.77 1008 10 16.0934 N/A
2:35 am 02:35 Cloudy 29 -1.7 23 -5 78 78 ESE 3 6 29.74 1007 10 16.0934 N/A
2:55 am 02:55 Cloudy 29 -1.7 23 -5 78 78 ENE 3 6 29.74 1007 10 16.0934 N/A
3:15 am 03:15 Cloudy 29 -1.8 23 -5 79 79 NNE 3 6 29.74 1007 10 16.0934 N/A
3:35 am 03:35 Cloudy 29 -1.8 23 -5 79 79 ENE 5 7 29.71 1006 10 16.0934 N/A
3:55 am 03:55 Cloudy 29 -1.8 23 -5 79 79 ENE 5 7 29.71 1006 10 16.0934 N/A
4:15 am 04:15 Cloudy 29 -1.8 23 -5 79 79 N 3 6 29.74 1007 10 16.0934 N/A
4:35 am 04:35 Cloudy 29 -1.8 23 -5 79 79 E 5 7 29.71 1006 10 16.0934 N/A
4:55 am 04:55 Cloudy 28 -2.1 23 -5 81 81 Calm 29.71 1006 10 16.0934 N/A
5:15 am 05:15 Cloudy 28 -2 23 -4.8 81 81 NW 7 11 29.77 1008 10 16.0934 N/A
5:35 am 05:35 Cloudy 29 -1.8 23 -4.8 80 80 NW 8 13 29.77 1008 10 16.0934 N/A
5:55 am 05:55 Cloudy 29 -1.8 24 -4.7 81 81 NW 7 11 29.77 1008 10 16.0934 N/A
6:15 am 06:15 Mostly Cloudy 28 -2.4 23 -5.1 82 82 NW 12 19 29.77 1008 10 16.0934 N/A
6:35 am 06:35 Clear 27 -3 23 -5.2 85 85 NW 12 19 29.8 1009 10 16.0934 N/A
6:55 am 06:55 Partly Cloudy 26 -3.2 22 -5.5 84 84 NW 10 17 29.83 1010 10 16.0934 N/A
7:15 am 07:15 Cloudy 27 -2.6 23 -4.9 84 84 NW 7 11 29.83 1010 10 16.0934 N/A
7:35 am 07:35 Cloudy 29 -1.6 25 -4 84 84 NW 7 11 29.8 1009 7 11.26538 N/A
7:55 am 07:55 Cloudy 31 -0.5 27 -3 83 83 NW 12 19 29.83 1010 7 11.26538 N/A
8:15 am 08:15 Cloudy 32 0.1 28 -2.3 84 84 NNW 17 28 29.83 1010 7 11.26538 N/A
8:35 am 08:35 Cloudy 32 0 26 -3.6 77 77 N 24 39 29.88 1012 10 16.0934 N/A
8:55 am 08:55 Cloudy 30 -1.1 22 -5.5 72 72 N 26 43 29.91 1013 10 16.0934 N/A
9:15 am 09:15 Cloudy 29 -1.5 20 -6.6 69 69 NNW 33 54 29.97 1015 10 16.0934 N/A
9:35 am 09:35 Cloudy 28 -2.5 17 -8.1 66 66 N 35 56 30 1016 10 16.0934 N/A
9:55 am 09:55 Cloudy 27 -3 15 -9.4 62 62 N 29 46 30.03 1017 10 16.0934 N/A
10:15 am 10:15 Cloudy 27 -2.8 14 -10 58 58 N 25 41 30.03 1017 10 16.0934 N/A
10:35 am 10:35 Partly Cloudy 27 -2.6 15 -9.7 59 59 N 23 37 30.03 1017 10 16.0934 N/A
10:55 am 10:55 Mostly Cloudy 29 -1.9 15 -9.6 56 56 N 23 37 30.03 1017 10 16.0934 N/A
11:15 am 11:15 Cloudy 29 -1.7 14 -10.1 53 53 N 25 41 30.06 1018 10 16.0934 N/A
11:35 am 11:35 Mostly Cloudy 30 -1.3 13 -10.5 50 50 N 28 44 30.06 1018 10 16.0934 N/A
11:55 am 11:55 Partly Cloudy 30 -1.1 13 -10.5 49 49 N 29 46 30.06 1018 10 16.0934 N/A
12:15 pm 12:15 Sunny 31 -0.6 13 -10.7 47 47 N 26 43 30.06 1018 10 16.0934 N/A
12:35 pm 12:35 Sunny 32 0 12 -10.9 44 44 N 29 46 30.06 1018 10 16.0934 N/A
12:55 pm 12:55 Sunny 32 -0.2 12 -11.1 44 44 N 25 41 30.06 1018 10 16.0934 N/A
1:15 pm 13:15 Sunny 31 -0.4 11 -11.5 43 43 N 24 39 30.06 1018 10 16.0934 N/A
1:35 pm 13:35 Sunny 32 -0.2 11 -11.5 43 43 N 22 35 30.06 1018 10 16.0934 N/A
1:55 pm 13:55 Sunny 32 0.1 11 -11.8 41 41 N 22 35 30.06 1018 10 16.0934 N/A
2:15 pm 14:15 Sunny 33 0.4 11 -11.6 41 41 N 21 33 30.06 1018 10 16.0934 N/A
2:35 pm 14:35 Sunny 32 0.2 11 -11.7 41 41 N 22 35 30.06 1018 10 16.0934 N/A
2:55 pm 14:55 Partly Cloudy 32 0.1 10 -12.1 40 40 N 16 26 30.06 1018 10 16.0934 N/A
3:15 pm 15:15 Partly Cloudy 32 0.2 9 -12.7 38 38 N 17 28 30 1016 10 16.0934 N/A
3:35 pm 15:35 Sunny 32 0 10 -12 40 40 N 20 31 30.06 1018 10 16.0934 N/A
3:55 pm 15:55 Sunny 32 0.1 10 -12.1 40 40 N 20 31 30.06 1018 10 16.0934 N/A
4:15 pm 16:15 Sunny 32 -0.1 8 -13.1 37 37 N 20 31 30.06 1018 10 16.0934 N/A
4:35 pm 16:35 Sunny 31 -0.3 4 -15.3 32 32 N 17 28 30.06 1018 10 16.0934 N/A
4:55 pm 16:55 Sunny 31 -0.6 2 -16.7 29 29 N 20 31 30.06 1018 10 16.0934 N/A
5:15 pm 17:15 Sunny 30 -1 1 -17 29 29 N 17 28 30.06 1018 10 16.0934 N/A
5:35 pm 17:35 Sunny 29 -1.7 1 -17 30 30 N 13 20 30.09 1019 10 16.0934 N/A
5:55 pm 17:55 Sunny 28 -2.1 3 -16 34 34 NNE 13 20 30.09 1019 10 16.0934 N/A
6:15 pm 18:15 Sunny 27 -2.7 3 -15.9 36 36 N 15 24 30.12 1020 10 16.0934 N/A
6:35 pm 18:35 Clear 25 -3.9 4 -15.8 39 39 N 15 24 30.12 1020 10 16.0934 N/A
6:55 pm 18:55 Clear 24 -4.7 4 -15.7 42 42 N 10 17 30.15 1021 10 16.0934 N/A
7:15 pm 19:15 Clear 23 -5.1 4 -15.5 44 44 N 12 19 30.15 1021 10 16.0934 N/A
7:35 pm 19:35 Clear 23 -5.2 4 -15.6 44 44 N 12 19 30.15 1021 10 16.0934 N/A
7:55 pm 19:55 Partly Cloudy 23 -5.1 3 -16 42 42 N 12 19 30.21 1023 10 16.0934 N/A
8:15 pm 20:15 Cloudy 23 -5 3 -16.1 42 42 N 10 17 30.21 1023 10 16.0934 N/A
8:35 pm 20:35 Cloudy 23 -5 3 -16.2 41 41 N 12 19 30.21 1023 10 16.0934 N/A
8:55 pm 20:55 Cloudy 23 -5 3 -15.9 43 43 N 13 20 30.21 1023 10 16.0934 N/A
9:15 pm 21:15 Cloudy 23 -5.1 4 -15.5 44 44 N 12 19 30.21 1023 10 16.0934 N/A
9:35 pm 21:35 Cloudy 22 -5.3 5 -15.2 46 46 N 12 19 30.24 1024 10 16.0934 N/A
9:55 pm 21:55 Cloudy with Light Snow 21 -6.1 10 -12 63 63 N 12 19 30.27 1025 5 8.0467 N/A
10:15 pm 22:15 Cloudy with Light Snow 19 -7.1 15 -9.7 82 82 N 9 15 30.27 1025 2.5 4.02335 N/A
10:35 pm 22:35 Cloudy with Light Snow 19 -7.5 15 -9.3 87 87 NNW 9 15 30.27 1025 1.25 2.011675 N/A
10:55 pm 22:55 Cloudy with Light Snow 19 -7.5 15 -9.2 88 88 N 8 13 30.27 1025 3 4.82802 N/A
11:15 pm 23:15 Cloudy with Light Snow 18 -7.6 15 -9.2 88 88 N 7 11 30.33 1027 2.5 4.02335 0.01 0.254
11:35 pm 23:35 Cloudy with Light Snow 18 -7.6 15 -9.2 88 88 N 5 7 30.33 1027 2.5 4.02335 0.01 0.254
11:55 pm 23:55 Cloudy with Light Snow 18 -7.7 15 -9.2 89 89 N 5 7 30.3 1026 1.75 2.816345 0.01 0.254

Powered by AerisWeather